Regional Weather Roundup
Issued by NWS Little Rock, AR

Home | Current Version | Previous Version | Text Only | Print | Product List | Glossary On
Versions: 1 2 3 4 5 6 7 8 9 10 11 12 13 14 15 16 17 18 19 20 21 22 23 24 25 26 27 28 29 30 31 32 33 34 35 36 37 38 39 40 41 42 43 44 45 46 47 48 49 50
000
ASUS44 KLZK 031110
RWRLZK

WEATHER ROUNDUP FOR ARKANSAS
NATIONAL WEATHER SERVICE LITTLE ROCK AR
600 AM CDT TUE AUG 03 2021

NOTE: "FAIR" INDICATES FEW OR NO CLOUDS BELOW 12,000 FEET WITH NO
SIGNIFICANT WEATHER AND/OR OBSTRUCTIONS TO VISIBILITY.

ARZ001-003-010-029-031200-
NORTHWEST ARKANSAS

CITY           SKY/WX    TMP DP  RH WIND       PRES   REMARKS
FAYETTEVILLE   FOG       62  61  96 CALM      30.07S VSB 3/4
FORT SMITH     PTCLDY    72  68  87 CALM      30.03R
HARRISON       CLEAR     62  61  96 CALM      30.09R FOG
BENTONVILLE    CLEAR     65  64  97 NE5       30.10S
ROGERS         CLEAR     64  62  93 NE5       30.09S
SILOAM SPGS    CLEAR     64  63  96 CALM      30.08S
HIGHFILL       CLEAR     64  62  93 N5        30.08S
SPRINGDALE     CLEAR     66  66 100 E5        30.08  FOG
$$

ARZ004-005-016-031200-
NORTH CENTRAL ARKANSAS

CITY           SKY/WX    TMP DP  RH WIND       PRES   REMARKS
BATESVILLE     MOCLDY    66  65  96 NW3       30.06R
FLIPPIN        PTCLDY    65  64  97 CALM      30.08S FOG
MTN HOME       CLOUDY    65  62  90 E3        30.08R
$$

ARZ040-041-031200-
WEST CENTRAL ARKANSAS

CITY           SKY/WX    TMP DP  RH WIND       PRES   REMARKS
MENA           CLOUDY    72  72 100 CALM      30.05R
MOUNT IDA      MOCLDY    70  69  97 CALM      30.02R FOG
$$

ARZ009-017-025-026-028-031200-
NORTHEAST ARKANSAS

CITY           SKY/WX    TMP DP  RH WIND       PRES   REMARKS
JONESBORO      CLEAR     66  63  90 N5        30.05R
NEWPORT        CLOUDY    66  65  96 N6        30.05R
WALNUT RIDGE   CLEAR     65  65 100 N6        30.06R
BLYTHEVILLE    LGT RAIN  63  60  90 N5        30.04R
$$

ARZ032-043-044-031200-
LITTLE ROCK METRO AREA

CITY           SKY/WX    TMP DP  RH WIND       PRES   REMARKS
LITTLE ROCK    CLOUDY    72  68  87 NE5       30.03R
N LTL ROCK NWS   N/A     68  65  92 NE3       29.96R
NLR AIRPORT    CLOUDY    66  64  94 NE6       30.03R
BENTON         CLOUDY    72  72 100 NE5       30.02R FOG
JACKSONVILLE   MOCLDY    69  67  91 CALM      30.02R
CONWAY         CLOUDY    70  70 100 NE5       30.02S
$$

ARZ022-023-033-042-031200-
REMAINDER OF CENTRAL ARKANSAS

CITY           SKY/WX    TMP DP  RH WIND       PRES   REMARKS
SEARCY         CLEAR     70  65  84 NE8       30.04R
HOT SPRINGS    CLOUDY    73  71  93 CALM      30.03R FOG
RUSSELLVILLE   CLEAR     72  64  76 E3        30.03R
CLINTON        CLOUDY    66  66 100 CALM      30.06R FOG
$$

ARZ036-031200-
EAST ARKANSAS

CITY           SKY/WX    TMP DP  RH WIND       PRES   REMARKS
WEST MEMPHIS   PTCLDY    68  63  84 NE5       30.01S
$$

ARZ050-053-066-070-073-031200-
SOUTHWEST ARKANSAS

CITY           SKY/WX    TMP DP  RH WIND       PRES   REMARKS
TEXARKANA      CLEAR     71  68  90 CALM      30.00S FOG
EL DORADO      CLEAR     69  68  96 N3        29.99S FOG
DE QUEEN       PTCLDY    68  66  93 E3        30.00S FOG
$$

ARZ056-057-069-031200-
SOUTHEAST ARKANSAS

CITY           SKY/WX    TMP DP  RH WIND       PRES   REMARKS
PINE BLUFF     MOCLDY    74  69  85 CALM      30.01S
STUTTGART      MOCLDY    72  70  93 N6        30.02R
MONTICELLO     PTCLDY    69  67  93 NW3       30.00R FOG

$$





USA.gov is the U.S. government's official web portal to all federal, state and local government web resources and services.